CAPE
0 0 0 0 0 1 0 76 42 214 236 121 63 170 102 270 80 24 350 148 86 218 382 252 274 155 105 135 313 337 353 427 483 475 599 845 817 678 503 479 459 441 357 276 193 172 163 161 224
0 0 0 0 0 0 0 164 433 481 377 286 270 51 188 486 888 540 218 279 182 293 434 273 283 194 206 311 385 331 382 361 461 562 698 710 722 516 443 381 324 247 158 86 5 20 55 123 149
0 0 0 0 0 0 0 48 233 161 140 253 316 108 284 645 855 650 311 109 197 266 355 373 323 279 326 420 446 315 220 222 456 617 744 771 670 531 406 326 278 194 97 39 0 8 43 137 121
0 0 0 0 0 0 0 5 115 35 32 132 117 168 828 1065 989 530 93 62 72 186 362 597 511 460 468 547 526 420 387 472 760 711 703 671 549 430 358 259 183 100 42 60 0 9 49 101 84
0 0 0 0 178 175 55 101 172 0 6 40 71 571 916 1131 718 122 48 44 6 87 354 482 567 499 509 526 585 515 435 352 473 583 581 523 459 416 315 203 129 105 94 29 7 11 47 72 11
0 0 0 0 71 132 174 174 25 0 0 498 751 701 974 779 313 201 108 26 43 0 122 411 646 608 584 620 537 474 387 427 465 300 326 302 292 290 269 198 138 101 82 44 17 9 25 15 32
0 0 0 0 23 109 161 136 70 3 4 208 592 674 949 877 774 595 242 132 129 93 10 195 412 577 644 638 516 502 389 387 432 501 361 247 252 241 240 236 207 188 101 53 21 11 19 32 4
0 0 0 0 0 47 199 26 0 8 86 238 372 333 590 1018 1106 777 449 253 157 110 39 47 198 341 392 472 456 358 423 446 476 474 380 323 313 247 221 256 198 127 126 147 206 234 215 166 149
0 0 0 0 8 118 55 0 24 36 145 59 80 423 853 1214 858 634 446 339 371 219 103 42 76 148 144 200 481 680 570 465 352 305 306 249 172 55 36 87 263 451 559 566 461 502 577 619 633
0 0 0 11 66 46 0 3 50 108 101 51 216 324 762 799 686 203 30 0 0 0 0 0 27 9 40 123 132 338 290 472 445 362 171 134 101 3 52 322 624 723 856 983 1027 1004 908 859 613
0 0 2 262 211 54 19 126 172 44 212 82 103 76 59 104 29 0 0 0 0 0 0 0 0 0 47 71 113 118 112 127 187 121 130 106 80 202 382 579 517 448 415 541 531 418 257 188 115
0 0 140 390 418 261 259 259 12 39 0 0 0 0 0 0 0 0 0 0 0 0 0 0 0 0 0 10 138 243 218 105 119 123 56 89 160 261 393 324 199 234 212 214 162 116 39 0 0
0 0 399 531 244 146 309 23 0 0 0 0 0 0 0 0 0 0 0 0 0 0 0 0 0 0 0 33 90 111 23 0 0 0 0 8 144 383 258 156 136 208 198 188 200 249 241 178 169
0 4 305 474 104 52 37 0 2 0 0 0 0 0 0 0 0 0 0 0 0 0 0 0 0 0 0 3 3 0 0 0 0 0 0 0 1 32 17 0 0 0 0 0 0 9 73 91 172
0 55 234 273 26 37 0 14 0 0 0 0 0 0 0 0 0 0 0 0 0 0 0 0 0 0 0 0 0 0 0 0 0 0 0 0 0 0 0 0 0 0 0 0 0 0 0 0 22
0 7 109 45 2 2 0 32 0 0 0 0 0 0 0 0 0 0 0 0 0 0 0 0 0 0 0 0 0 0 0 0 0 0 0 0 0 0 0 0 0 0 0 0 0 0 0 0 0
0 0 7 169 0 7 0 12 0 0 0 0 0 0 0 0 0 0 0 0 0 0 0 0 0 0 0 0 0 0 0 0 0 0 0 0 0 0 0 0 0 0 0 0 0 0 0 0 0
0 0 0 72 98 0 0 0 0 0 0 0 0 0 0 0 0 0 0 0 0 0 0 0 0 0 0 0 0 0 0 0 0 0 0 0 0 0 0 0 0 0 0 0 0 0 0 0 0
0 0 0 0 0 0 0 0 0 0 0 0 0 0 0 0 0 0 0 0 0 0 0 0 0 0 0 0 0 0 0 0 0 0 0 0 0 0 0 0 0 0 0 0 0 0 0 0 0
0 0 0 0 0 0 0 0 0 0 0 0 0 0 0 0 0 0 0 0 0 0 0 0 0 0 0 0 0 0 0 0 0 0 0 0 0 0 0 0 0 0 0 0 0 0 0 0 0
0 0 0 0 0 0 0 0 0 0 0 0 0 0 0 0 0 0 0 0 0 0 0 0 0 0 0 0 0 0 0 0 0 0 0 0 0 0 0 0 0 0 0 0 0 0 0 0 0
0 0 0 0 0 0 0 0 0 0 0 0 0 0 0 0 0 0 0 0 0 0 0 0 0 0 0 0 0 0 0 0 0 0 0 0 0 0 0 0 0 0 0 0 0 0 0 0 0
0 0 0 0 0 0 0 0 0 0 0 0 0 0 0 0 0 0 0 0 0 0 0 0 0 0 0 0 0 0 0 0 0 0 0 0 0 0 0 0 0 0 0 0 0 0 0 0 0
0 0 0 0 0 0 0 0 0 0 0 0 0 0 0 0 0 0 0 0 0 0 0 0 0 0 0 0 0 0 0 0 0 0 0 0 0 0 0 0 0 0 0 0 0 0 0 0 0
0 0 0 0 0 0 0 0 0 0 0 0 0 0 0 0 0 0 0 0 0 0 0 0 0 0 0 0 0 0 0 0 0 0 0 0 0 0 0 0 0 0 0 0 0 0 0 0 0
0 0 0 0 0 0 0 0 0 0 0 0 0 0 0 0 0 0 0 0 0 0 0 0 0 0 0 0 0 0 0 0 0 0 0 0 0 0 0 0 0 0 0 0 0 0 0 0 0
0 0 0 0 0 0 0 0 0 0 0 0 0 0 0 0 0 0 0 0 0 0 0 0 0 0 0 0 0 0 0 0 0 0 0 0 0 0 0 0 0 0 0 0 0 0 0 0 0
5 0 0 0 0 0 0 0 0 0 0 0 0 0 0 0 0 0 0 0 0 0 0 0 0 0 0 0 0 0 0 0 0 0 0 0 0 0 0 0 0 0 0 0 0 0 0 0 0
30 3 0 0 0 0 0 0 0 0 0 0 0 0 0 0 0 0 0 0 0 0 0 0 0 0 0 0 0 0 0 0 0 0 0 0 0 0 0 0 0 0 0 0 0 0 0 0 0
0 1 0 3 1 0 0 0 0 0 0 0 0 0 0 0 0 0 0 0 0 0 0 0 0 0 0 0 0 0 0 0 0 0 0 0 0 0 0 0 0 0 0 0 0 0 0 0 0
CIN
0 0 0 0 0 -94 0 -78 -120 -56 -86 -135 -159 -133 -174 -255 -176 -104 -286 -361 -387 -274 -159 -184 -167 -211 -217 -191 -112 -95 -74 -58 -50 -50 -41 -18 -23 -37 -55 -59 -65 -61 -67 -76 -90 -95 -96 -113 -100
0 0 0 0 -14 0 0 -82 -49 -68 -78 -86 -135 -182 -157 -157 -190 -243 -301 -289 -327 -236 -168 -181 -171 -206 -193 -145 -114 -115 -94 -91 -73 -54 -39 -37 -36 -58 -59 -78 -91 -89 -104 -122 -27 -144 -154 -132 -120
0 0 0 0 -22 0 0 -89 -106 -159 -182 -101 -123 -208 -230 -190 -167 -206 -308 -390 -312 -262 -197 -166 -181 -192 -172 -142 -120 -140 -158 -143 -87 -70 -55 -54 -57 -67 -75 -94 -88 -99 -119 -135 0 -185 -183 -153 -164
0 0 0 0 0 0 0 -129 -136 -158 -169 -179 -218 -206 -175 -126 -115 -229 -408 -433 -407 -298 -195 -125 -153 -165 -155 -132 -125 -142 -147 -127 -77 -88 -91 -91 -95 -106 -103 -114 -122 -130 -148 -147 0 -195 -186 -184 -191
0 0 0 0 -141 -183 -236 -118 -103 0 -142 -205 -236 -179 -110 -112 -229 -400 -447 -478 -428 -349 -207 -164 -146 -159 -152 -147 -136 -147 -164 -176 -144 -132 -124 -122 -125 -120 -130 -135 -141 -141 -148 -171 -142 -196 -212 -202 -241
0 0 0 0 -118 -156 -173 -166 -201 -88 0 -142 -161 -150 -93 -164 -289 -354 -375 -443 -386 -112 -289 -191 -153 -155 -163 -154 -171 -193 -213 -196 -186 -201 -189 -174 -160 -151 -143 -150 -148 -155 -158 -169 -186 -215 -225 -248 -249
0 0 0 0 -164 -125 -149 -205 -167 -154 -122 -165 -183 -166 -160 -130 -178 -164 -282 -290 -277 -273 -134 -232 -183 -159 -147 -151 -186 -197 -227 -212 -198 -180 -188 -192 -188 -175 -165 -155 -153 -159 -165 -178 -197 -244 -249 -256 -243
0 0 0 0 0 -182 -177 -336 0 -275 -194 -303 -288 -228 -179 -131 -119 -120 -146 -208 -235 -232 -308 -329 -224 -191 -189 -177 -188 -214 -212 -197 -192 -190 -193 -186 -183 -185 -171 -169 -180 -187 -168 -167 -175 -161 -156 -162 -192
0 0 0 0 -245 -127 -332 0 -315 -432 -244 -368 -410 -178 -97 -100 -136 -144 -142 -158 -161 -199 -262 -348 -320 -280 -297 -260 -185 -151 -174 -188 -203 -205 -198 -204 -219 -257 -158 -212 -156 -125 -126 -120 -132 -117 -119 -120 -120
0 0 0 -40 -231 -237 0 -154 -271 -261 -295 -385 -334 -347 -241 -173 -149 -279 -355 0 0 0 0 0 -387 -217 -379 -303 -302 -228 -246 -194 -188 -210 -251 -250 -253 -41 -219 -158 -127 -114 -100 -100 -95 -99 -117 -120 -124
0 0 -62 -179 -198 -247 -256 -276 -245 -298 -234 -386 -390 -517 -582 -486 -483 -42 0 0 0 0 0 0 0 0 -361 -340 -306 -314 -319 -308 -280 -303 -295 -313 -303 -229 -175 -128 -119 -155 -161 -143 -162 -182 -214 -245 -256
0 0 -150 -164 -163 -182 -174 -250 -329 -359 0 0 0 0 0 0 0 0 0 0 0 0 0 0 0 0 0 -418 -319 -281 -292 -350 -337 -344 -392 -348 -291 -241 -198 -215 -269 -242 -255 -226 -248 -259 -295 0 0
0 0 -121 -121 -199 -226 -238 -211 0 0 0 0 0 0 0 0 0 0 0 0 0 0 0 0 0 0 0 -476 -374 -377 -524 0 0 0 0 -52 -364 -231 -290 -352 -377 -331 -330 -324 -298 -271 -242 -247 -271
0 -16 -151 -160 -293 -343 -288 0 -112 0 0 0 0 0 0 0 0 0 0 0 0 0 0 0 0 0 0 -222 -211 0 0 0 0 0 0 0 -97 -555 -569 0 0 0 0 0 0 -145 -404 -387 -332
0 -179 -132 -157 -375 -332 0 -150 0 0 0 0 0 0 0 0 0 0 0 0 0 0 0 0 0 0 0 0 0 0 0 0 0 0 0 0 0 0 0 0 0 0 0 0 0 0 0 0 -456
0 -60 -123 -242 -258 -262 0 -61 0 0 0 0 0 0 0 0 0 0 0 0 0 0 0 0 0 0 0 0 0 0 0 0 0 0 0 0 0 0 0 0 0 0 0 0 0 0 0 0 0
0 0 -111 -68 0 -187 0 -79 0 0 0 0 0 0 0 0 0 0 0 0 0 0 0 0 0 0 0 0 0 0 0 0 0 0 0 0 0 0 0 0 0 0 0 0 0 0 0 0 0
0 0 0 -93 -121 0 0 0 0 0 0 0 0 0 0 0 0 0 0 0 0 0 0 0 0 0 0 0 0 0 0 0 0 0 0 0 0 0 0 0 0 0 0 0 0 0 0 0 0
0 0 0 0 0 0 0 0 0 0 0 0 0 0 0 0 0 0 0 0 0 0 0 0 0 0 0 0 0 0 0 0 0 0 0 0 0 0 0 0 0 0 0 0 0 0 0 0 0
0 0 0 0 0 0 0 0 0 0 0 0 0 0 0 0 0 0 0 0 0 0 0 0 0 0 0 0 0 0 0 0 0 0 0 0 0 0 0 0 0 0 0 0 0 0 0 0 0
0 0 0 0 0 0 0 0 0 0 0 0 0 0 0 0 0 0 0 0 0 0 0 0 0 0 0 0 0 0 0 0 0 0 0 0 0 0 0 0 0 0 0 0 0 0 0 0 0
0 0 0 0 0 0 0 0 0 0 0 0 0 0 0 0 0 0 0 0 0 0 0 0 0 0 0 0 0 0 0 0 0 0 0 0 0 0 0 0 0 0 0 0 0 0 0 0 0
0 0 0 0 0 0 0 0 0 0 0 0 0 0 0 0 0 0 0 0 0 0 0 0 0 0 0 0 0 0 0 0 0 0 0 0 0 0 0 0 0 0 0 0 0 0 0 0 0
0 0 0 0 0 0 0 0 0 0 0 0 0 0 0 0 0 0 0 0 0 0 0 0 0 0 0 0 0 0 0 0 0 0 0 0 0 0 0 0 0 0 0 0 0 0 0 0 0
0 0 0 0 0 0 0 0 0 0 0 0 0 0 0 0 0 0 0 0 0 0 0 0 0 0 0 0 0 0 0 0 0 0 0 0 0 0 0 0 0 0 0 0 0 0 0 0 0
0 0 0 0 0 0 0 0 0 0 0 0 0 0 0 0 0 0 0 0 0 0 0 0 0 0 0 0 0 0 0 0 0 0 0 0 0 0 0 0 0 0 0 0 0 0 0 0 0
0 0 0 0 0 0 0 0 0 0 0 0 0 0 0 0 0 0 0 0 0 0 0 0 0 0 0 0 0 0 0 0 0 0 0 0 0 0 0 0 0 0 0 0 0 0 0 0 0
-107 0 0 0 0 0 0 0 0 0 0 0 0 0 0 0 0 0 0 0 0 0 0 0 0 0 0 0 0 0 0 0 0 0 0 0 0 0 0 0 0 0 0 0 0 0 0 0 0
-155 -118 0 0 0 0 0 0 0 0 0 0 0 0 0 0 0 0 0 0 0 0 0 0 0 0 0 0 0 0 0 0 0 0 0 0 0 0 0 0 0 0 0 0 0 0 0 0 0
0 -148 0 -64 -3 0 0 0 0 0 0 0 0 0 0 0 0 0 0 0 0 0 0 0 0 0 0 0 0 0 0 0 0 0 0 0 0 0 0 0 0 0 0 0 0 0 0 0 0
Wind_Speed
14 14 15 9 14 10 12 12 16 18 5 21 16 15 15 17 13 14 13 17 22 21 21 21 22 23 23 24 24 25 26 26 25 25 25 25 24 24 25 24 24 24 23 24 24 24 26 22 22
15 15 15 14 16 14 4 11 9 19 22 20 18 16 18 16 15 14 17 20 20 20 20 21 22 22 23 23 24 24 25 25 24 24 24 24 23 23 23 22 22 21 22 23 23 23 22 22 21
16 15 14 12 11 14 13 13 13 14 8 14 16 18 17 16 13 19 18 20 19 19 20 21 22 22 22 22 23 23 23 24 23 22 22 22 22 22 22 22 21 20 20 20 18 19 18 19 15
16 15 14 13 16 15 8 10 11 14 13 16 17 18 19 16 16 19 21 19 18 18 19 20 21 21 21 21 21 22 22 22 22 21 21 20 20 21 21 20 20 19 19 18 16 16 15 14 13
16 13 12 14 17 17 9 6 8 10 12 16 14 15 14 13 17 19 18 17 18 19 19 20 20 19 19 20 20 20 20 21 21 20 19 19 19 19 19 19 18 17 16 16 14 13 13 12 12
12 11 11 14 16 17 17 6 9 15 14 19 20 21 15 7 17 18 20 21 21 20 19 20 19 18 19 18 19 19 19 19 19 19 18 17 17 17 17 17 16 15 14 13 12 12 12 11 11
8 10 10 9 11 13 15 13 13 14 17 16 17 17 18 17 12 17 18 18 17 17 16 18 18 17 17 17 17 17 17 18 18 17 16 16 16 17 16 15 14 13 12 11 11 12 11 11 11
8 8 8 7 8 10 14 11 14 13 16 16 13 11 18 21 15 14 15 17 16 13 12 12 14 15 15 15 15 15 16 16 16 16 16 16 17 17 16 15 13 12 12 11 11 12 13 12 11
11 9 7 5 8 8 9 12 14 12 13 15 14 8 15 14 14 16 16 15 16 14 11 10 10 11 11 12 13 13 15 15 14 14 16 16 17 17 17 16 14 13 13 12 12 13 14 14 13
9 10 8 5 6 12 13 14 12 11 12 14 14 3 9 12 13 15 15 14 14 13 11 10 9 10 11 12 13 12 14 14 14 14 18 18 18 18 18 18 18 17 16 15 15 16 17 17 15
10 12 7 9 6 12 14 9 9 10 10 9 13 10 6 10 9 10 13 16 15 13 12 11 11 12 10 15 14 12 14 15 15 16 19 19 20 21 21 20 22 22 22 22 22 22 23 20 20
11 5 4 3 7 9 9 7 8 10 8 8 6 5 6 7 8 9 11 12 14 14 13 12 12 12 13 12 13 15 9 13 20 20 20 21 22 22 22 22 21 21 22 22 23 24 25 26 25
12 6 4 6 6 5 3 5 7 9 9 7 6 5 5 4 6 7 9 10 11 13 13 13 13 13 13 13 13 13 13 14 14 15 18 18 18 18 18 18 20 21 22 23 24 24 25 26 27
8 6 4 6 3 2 5 3 7 6 7 7 6 5 5 5 5 7 8 9 11 12 13 14 14 14 13 13 13 13 14 14 15 16 17 18 18 17 17 19 21 23 24 25 25 25 26 26 27
2 2 4 4 3 4 4 7 6 7 5 6 6 5 5 6 7 8 10 10 11 12 13 14 14 15 14 14 13 14 14 15 16 16 18 19 19 19 19 21 23 24 25 26 27 28 28 29 29
8 10 9 7 5 5 14 7 4 3 2 4 5 4 5 6 9 10 11 12 13 13 14 14 14 15 15 14 14 14 14 15 16 18 18 20 20 21 21 22 24 25 26 27 28 30 31 31 33
12 10 12 10 10 14 18 15 8 4 3 1 3 3 3 5 9 12 13 14 14 15 15 15 15 15 14 14 13 14 15 16 18 19 19 21 22 22 23 24 26 27 27 29 31 31 33 33 36
14 12 17 11 13 14 17 17 9 7 5 4 4 4 4 6 9 11 12 13 15 15 16 16 17 16 14 13 14 15 16 18 18 19 21 22 24 25 25 27 29 29 30 31 33 33 34 34 39
18 16 15 12 18 17 18 20 12 9 7 6 6 5 4 5 6 8 11 14 16 16 18 18 19 18 16 15 15 16 16 17 19 20 22 24 26 27 28 28 29 29 30 32 33 33 35 36 41
24 23 20 22 18 17 21 24 20 13 13 10 8 6 5 5 7 9 11 12 14 16 17 17 17 17 16 15 15 15 16 17 18 20 23 25 26 27 27 27 27 28 29 31 32 32 32 32 35
26 26 26 23 18 21 19 28 22 20 18 13 11 8 6 4 6 9 12 14 15 15 15 16 16 16 16 14 14 14 15 17 19 21 23 25 25 25 25 26 26 27 28 29 30 31 32 33 32
29 24 28 25 24 29 21 33 27 21 19 16 13 11 8 5 7 8 10 13 13 13 14 14 14 14 15 14 14 14 16 17 18 19 20 22 23 24 25 25 26 27 27 29 29 30 30 30 33
30 30 29 28 29 28 24 29 29 18 20 18 17 14 8 4 5 6 8 10 11 11 11 12 12 13 14 14 14 14 15 16 17 19 20 21 22 23 25 25 26 27 27 28 29 30 31 31 32
29 32 30 28 26 33 26 25 28 20 21 20 18 14 10 6 5 5 7 9 10 11 11 11 11 13 13 14 15 15 15 16 18 20 20 21 22 23 25 26 27 28 27 28 29 30 32 32 32
27 29 37 35 30 35 25 29 31 23 24 20 18 15 10 7 5 3 4 7 9 10 10 10 11 11 12 13 14 14 15 16 18 19 21 22 23 24 26 26 28 29 29 27 28 29 32 33 33
32 28 29 40 38 34 25 32 29 33 28 17 15 14 11 8 6 3 4 7 8 9 10 10 10 10 12 14 16 16 16 17 19 20 20 22 24 24 25 26 28 29 29 29 28 29 32 34 35
31 31 29 34 31 35 30 30 28 26 15 11 11 12 10 9 6 3 4 6 7 8 8 10 11 11 12 14 16 16 16 18 20 21 21 23 25 25 23 26 27 30 30 29 28 32 33 35 36
24 26 31 30 38 40 33 32 32 23 15 9 8 10 9 7 7 5 5 6 8 9 9 10 11 11 12 13 15 17 17 19 21 22 24 25 24 25 24 25 27 30 31 30 30 33 33 37 38
26 26 27 24 25 34 36 33 30 20 14 10 9 8 7 6 6 5 5 6 9 12 11 12 14 15 14 15 15 16 17 19 20 22 23 24 23 25 25 24 28 30 31 30 33 34 35 38 39
21 23 26 27 28 25 26 32 24 13 11 9 7 6 7 4 5 5 4 7 8 11 10 13 14 13 12 12 12 13 14 17 20 23 24 23 23 24 25 25 28 30 31 31 34 36 37 40 41
Wind_Direction
264 303 304 178 239 313 325 303 176 156 297 122 101 79 30 347 352 19 56 77 100 99 97 96 96 93 91 90 87 85 84 82 76 77 73 71 70 71 71 69 65 63 59 61 58 57 79 109 107
271 290 295 289 230 247 65 301 320 58 82 118 86 41 14 29 335 56 83 94 96 97 95 98 101 95 94 92 90 88 84 83 78 76 73 71 70 69 67 66 66 60 59 72 82 86 100 96 100
268 268 310 342 325 320 64 102 63 246 352 57 73 62 40 40 36 97 96 100 95 95 97 102 102 98 94 92 91 88 85 84 82 76 75 73 72 71 69 67 63 58 63 91 122 111 118 109 130
288 305 311 321 318 348 71 70 62 288 292 106 58 20 39 65 65 100 103 98 96 97 99 102 102 97 95 94 91 89 86 85 85 79 79 77 78 77 77 74 72 75 89 111 131 124 134 137 143
288 320 334 339 346 343 319 72 79 358 212 130 93 15 19 353 68 90 97 98 101 102 101 104 104 98 96 94 93 91 89 88 89 82 80 83 83 83 83 90 94 100 118 112 137 149 155 152 147
308 321 340 332 10 45 75 22 59 51 111 94 69 64 38 47 73 91 102 110 109 106 104 106 104 100 99 97 97 95 93 96 95 90 83 84 88 97 101 120 119 125 136 139 145 174 171 157 157
307 319 329 19 42 45 109 91 102 88 104 124 75 64 92 96 56 80 88 93 91 91 91 100 102 102 100 100 99 95 98 101 97 97 86 93 97 128 144 147 147 149 151 156 165 195 192 184 191
297 328 328 24 83 75 103 76 102 94 108 141 50 16 104 112 83 69 71 79 73 63 60 69 88 95 97 98 104 101 105 110 104 109 115 133 165 178 186 190 185 182 184 187 190 204 213 210 207
279 303 328 36 105 84 94 100 93 69 70 41 35 46 88 89 78 72 69 63 71 55 41 47 56 68 67 88 103 105 121 121 118 123 154 168 190 209 215 210 202 207 210 208 206 212 221 227 229
273 284 317 31 105 119 109 104 88 70 42 34 34 15 72 82 80 75 69 59 57 38 8 351 13 42 77 89 114 116 131 138 146 160 202 204 209 217 228 238 242 237 233 228 228 233 241 245 233
276 278 314 344 97 120 114 100 67 78 34 348 70 66 58 76 64 63 62 61 55 36 7 336 327 319 343 138 149 125 147 154 167 185 221 230 235 249 255 257 280 290 295 286 287 280 286 261 259
282 273 315 66 117 115 114 61 41 18 11 28 29 34 54 61 54 55 54 52 50 33 3 341 323 323 320 334 343 330 30 181 256 281 280 257 252 265 278 292 310 321 320 323 321 312 309 307 290
278 252 272 141 133 119 60 47 31 29 26 12 349 342 358 21 29 20 22 24 28 26 8 341 331 324 323 337 339 346 347 344 338 331 317 316 323 326 335 338 337 338 335 334 331 328 325 324 316
298 262 186 161 156 145 135 78 358 31 40 19 19 1 339 326 334 339 343 349 358 358 347 338 329 321 323 333 331 341 347 342 348 342 335 335 343 347 348 341 334 331 329 327 329 328 325 325 324
22 241 266 182 174 288 133 312 334 99 47 16 4 360 347 318 315 318 318 329 334 337 339 328 324 313 321 328 332 339 348 347 347 345 342 344 349 345 340 334 333 330 330 327 325 322 321 319 319
290 285 257 222 206 261 289 279 321 96 71 15 15 8 322 317 308 313 312 313 320 326 331 336 333 329 324 328 338 337 340 344 341 342 348 348 347 346 344 342 335 335 331 328 327 323 318 317 313
285 268 266 241 246 278 281 285 277 275 282 289 1 5 330 311 306 306 310 310 313 317 321 325 329 330 336 343 342 345 345 341 337 335 343 346 344 343 340 337 331 330 329 327 324 321 320 318 313
281 270 274 241 224 264 270 285 269 252 259 253 291 309 312 303 301 308 317 319 314 314 317 318 318 320 326 332 337 341 338 337 341 341 340 339 340 338 336 332 328 327 326 325 323 320 319 318 313
281 288 270 256 275 257 260 273 263 248 263 260 281 291 303 316 330 329 320 314 314 316 311 310 313 317 313 316 320 326 332 335 338 341 340 339 336 335 333 330 328 328 326 326 326 323 320 318 315
276 277 280 290 279 263 274 274 274 257 267 255 259 276 286 312 325 331 331 327 319 315 321 322 326 323 324 320 318 321 326 334 340 340 340 340 342 338 338 335 335 335 332 332 332 331 327 328 328
278 274 278 286 295 287 280 281 273 272 277 266 265 271 273 284 317 327 326 326 325 321 318 321 323 324 323 323 323 327 331 334 335 339 341 345 348 348 347 345 343 342 342 339 339 337 335 327 329
282 281 281 284 284 283 275 283 273 264 261 259 257 261 265 287 330 338 343 335 333 326 325 326 329 332 334 338 339 338 331 333 340 347 348 352 351 353 354 354 352 351 349 347 346 346 344 340 331
286 285 287 286 283 282 272 283 290 256 258 243 255 257 253 265 321 339 349 347 350 346 344 338 332 333 337 342 343 343 340 343 349 349 350 350 351 354 356 355 354 351 350 349 349 347 346 345 338
293 288 292 292 285 274 269 266 282 261 241 249 260 252 251 256 303 353 346 353 348 348 355 356 347 338 340 341 341 342 340 340 338 340 340 343 346 350 352 353 352 351 349 348 346 346 344 341 340
291 288 283 282 280 281 276 272 282 283 277 253 251 245 241 242 265 334 353 344 338 335 351 351 351 346 350 350 347 347 346 343 340 338 338 338 339 343 347 349 349 349 348 346 344 344 343 342 338
283 286 285 282 280 285 285 274 283 289 285 264 251 240 241 253 263 284 342 330 334 334 334 347 346 350 343 341 340 342 342 341 339 339 340 340 339 341 344 348 350 349 348 347 346 343 341 339 336
288 281 289 288 291 283 283 288 293 300 284 264 246 227 240 247 257 274 315 333 351 346 349 337 342 345 344 338 337 337 341 338 337 337 340 339 342 342 347 348 350 349 347 345 345 339 337 336 334
302 296 285 290 284 281 282 285 288 294 281 264 239 231 230 226 259 284 314 345 342 355 344 339 340 341 341 340 335 334 335 335 336 339 337 337 342 345 346 347 347 347 346 345 343 338 337 335 333
299 297 297 293 291 285 283 283 301 289 278 258 244 233 219 226 249 275 321 342 350 335 336 326 328 319 323 335 331 337 336 336 344 345 344 341 341 343 345 346 344 343 342 342 339 337 335 332 331
296 303 301 291 288 290 293 289 315 302 284 266 240 227 244 237 263 290 312 322 336 332 345 322 334 351 348 353 355 350 355 350 349 343 343 346 346 346 347 344 343 341 340 339 337 335 333 331 329